Accueil
METAR-TAF:

METAR-TAF

Aéroports :

RAF

Holbeach, Angleterre

latitude: 52-52N, longitude: 000-09E, altitude: 3 m

Observation

Le bulletin a été fait il y a 56 minutes, à 03:50 UTC
Vent 10 kt de ouest/nord-ouest
Température 12°C
Humidité 76%
Pression 1006 hPa
Visibilité 10 km ou plus

METAR: EGYH 300350Z AUTO 29010KT 9999 BKN032/// BKN067/// 12/08 Q1006

Heure: 05:46 (04:46 UTC)


TAF: absent

Observations et prévisions météorologiques de plus de 4000 aéroports (messages METAR et TAF).

Les stations disponibles sont représentées par des disques jaunes et rouges sur la carte.

Passer la souris dessus pour voir le nom de la station.

Cliquer dessus pour voir les observations et prévisions météorologiques.

Pour changer de carte: cliquez sur les boutons verts avec une croix noire pour zoomer, sur le bouton vert avec un tiret pour effectuer un zoom arrière, ou sur les flèches vertes pour les cartes adjacentes.


METAR-TAF: